Погода в Николо-Шанге

Россия / Костромская область     58°27′07″N   45°32′22″E
темп.,
°C
ветер,
м/с
пор.,
м/с
влажн.,
%
обл.,
%
осадки,
мм/ч
давл.,
гПа
погр.,
м
17 июня, чт
чт1700:00+11сз246668 0.0 101471
03:00+10сз226969 0.0 101635
06:00+14сз246060 0.0 1017203
09:00+19зсз35435 0.0 10171296
12:00+20сз583695 0.0 10182593
15:00+19ссз510427 0.0 10202223
18:00+17сз5104797 0.0 10211963
21:00+11сз26675 0.0 1023122
18 июня, пт
пт1800:00+9ссз23755 0.0 102560
03:00+7с117929 0.0 102610
06:00+12з126115 0.0 1027192
09:00+18з344542 0.0 10271005
12:00+22з4537100 0.0 10251792
15:00+24з4639100 0.0 10241920
18:00+22зюз3752100 0.0 1023541
21:00+17юз397632 0.0 1022167
19 июня, сб
сб1900:00+16зюз3138172 0.0 1023313
03:00+15зюз3128970 0.0 1022277
06:00+18зюз3107682 0.0 1022329
09:00+24з58535 0.0 1021834
12:00+28з69380 0.0 10202011
15:00+29з69340 0.0 10192158
18:00+27зсз49470 0.0 10191517
21:00+20зюз39770 0.0 1020174
20 июня, вс
вс2000:00+18з311820 0.0 1021228
03:00+16з25915 0.0 102299
06:00+20з24755 0.0 1022213
09:00+26з34530 0.0 1021755
12:00+30з45375 0.0 10202492
15:00+30зсз46330 0.0 10192574
18:00+28з364915 0.0 1019468
21:00+22зюз39757 0.0 1019172
21 июня, пн
пн2100:00+19зюз29872 0.0 1020182
03:00+17зюз26903 0.0 1020116
06:00+21зюз35752 0.0 1020227
09:00+26зюз35510 0.0 1019813
12:00+30з45410 0.0 10191982
15:00+31зсз453315 0.0 10182923
18:00+29зсз254990 0.0 1018231
21:00+22зсз22680 0.0 101822